Preview of NWS' New Version of Forecast
This preview is not operational and should not be used for support decisions.

Regional Weather Roundup (RWR)

Issued by National Weather Service (NWS)

                            
000
ASUS45 KBOU 241610
RWRCO 

WEATHER ROUNDUP FOR COLORADO
NATIONAL WEATHER SERVICE DENVER/BOULDER CO
1000 AM MDT WED APR 24 2019

NOTE: "FAIR" INDICATES FEW OR NO CLOUDS BELOW 12000 FEET WITH NO
SIGNIFICANT WEATHER AND/OR OBSTRUCTIONS TO VISIBILITY.

COZ001>005-013-030-031-241700-
...NORTHWEST COLORADO...
  
CITY           SKY/WX    TMP DP  RH WIND       PRES   REMARKS
CRAIG          FAIR      57  36  45 VRB3      30.13S                  
HAYDEN         FAIR      52  35  52 W6        30.16R                  
MEEKER         FAIR      53  34  48 CALM      30.13F                  
RANGELY        FAIR      55  38  53 CALM      30.11S                  
RABBIT EARS PA FAIR      37  32  81 W10G17    30.26R                  
STEAMBOAT SPGS FAIR      50  35  55 W3        30.15F                  
WALDEN         FAIR      50  30  46 CALM      30.17F                  
$$

COZ006>008-011-241700-
...WEST CENTRAL VALLEYS...
  
CITY           SKY/WX    TMP DP  RH WIND       PRES   REMARKS
GRAND JUNCTION FAIR      61  36  39 SE5       30.09R                  
MONTROSE       CLOUDY    57  32  38 CALM      30.13F                  
EAGLE          FAIR      48  29  47 CALM      30.17F                  
RIFLE          FAIR      58  34  40 NE3       30.11F                  
DELTA          FAIR      60  31  33 E3        30.12S                  
NUCLA          FAIR      55  36  47 W3        30.16S                  
$$

COZ017>023-064>068-241700-
...SOUTHWEST COLORADO...
  
CITY           SKY/WX    TMP DP  RH WIND       PRES   REMARKS
DURANGO        FAIR      52  40  63 VRB3      30.12F                  
CORTEZ         FAIR      57  40  52 CALM      30.11F                  
PAGOSA SPRINGS FAIR      50  36  58 CALM      30.16S                  
TELLURIDE      FAIR      46  30  53 W3        30.23S                  
WOLF CREEK PAS FAIR      32  21  64 N6        30.35R WCI  26          
$$

COZ009-010-012-014-032>034-037-058>063-241700-
...CENTRAL COLORADO...
  
CITY           SKY/WX    TMP DP  RH WIND       PRES   REMARKS
ASPEN          CLOUDY    46  28  49 N5        30.17S                  
BUENA VISTA    FAIR      50  28  42 SE5       30.15F                  
COPPER MTN     NOT AVBL                                               
BERTHOUD PASS  CLOUDY    27  16  63 NW14      30.30S WCI  15          
COTTONWOOD PAS FAIR      45  25  45 E5        30.22S                  
GUNNISON       FAIR      45  31  58 CALM      30.18F                  
GRANBY         CLOUDY    38  31  74 CALM      30.20S                  
KREMMLING      FAIR      48  32  53 CALM      30.18F                  
LEADVILLE      CLOUDY    39  26  59 N3        30.22S                  
MONARCH PASS   FAIR      32  23  69 W8        30.40R WCI  25          
SALIDA         FAIR      53  31  43 CALM      30.21F                  
SUNLIGHT       PTSUNNY   34  27  75 NW6       30.31S WCI  29          
WILKERSON PASS FAIR      41  19  42 NE8       30.28S                  
$$

COZ069>075-241700-
...SAN LUIS VALLEY/SANGRE DE CRISTO MOUNTAINS...
  
CITY           SKY/WX    TMP DP  RH WIND       PRES   REMARKS
ALAMOSA        CLOUDY    44  36  73 CALM      30.17S                  
DEL NORTE      FAIR      44  38  82 E6        30.19R                  
LA VETA PASS   NOT AVBL                                               
SAGUACHE       FAIR      46  37  71 CALM      30.16F                  
$$

COZ035-036-038>040-241700-
...NORTHERN COLORADO FRONT RANGE...
  
CITY           SKY/WX    TMP DP  RH WIND       PRES   REMARKS
DENVER INTL AP PTSUNNY   62  34  35 W5        30.01S                  
AURORA         PTSUNNY   62  33  34 CALM      30.02F                  
FRONT RANGE AP PTSUNNY   63  36  36 NW3       30.02S                  
ERIE MUNI ARPT PTSUNNY   61  40  45 CALM      30.05F                  
BOULDER MUN AP CLOUDY    57  41  54 CALM      30.01S                  
CENTENNIAL     PTSUNNY   63  31  30 VRB3      30.03S                  
BROOMFIELD     NOT AVBL                                               
FORT COLLINS   FAIR      58  40  51 SW5       30.01F                  
LONGMONT       CLOUDY    60  42  51 CALM      30.02F                  
$$

COZ041-046-047-076>085-087-088-241700-
...PIKES PEAK/PALMER DIVIDE AND SOUTHERN FOOTHILLS...
  
CITY           SKY/WX    TMP DP  RH WIND       PRES   REMARKS
COLO. SPRINGS  FAIR      63  29  27 NW6       30.05F                  
A. F. ACADEMY  FAIR      62  25  25 N9        30.04F                  
SCHRIEVER AFB  NOT AVBL                                               
CHEYENNE MTN   FAIR      60  27  28 NE9       30.03S                  
ELLICOTT         N/A    N/A N/A N/A NE9G18    30.04R                  
FALCON         FAIR      61  27  27 NE13G20   30.09S                  
FORT CARSON    FAIR      65  29  26 NW3       30.04S                  
LIMON          FAIR      63  31  30 NW7G18    30.00S                  
MONUMENT HILL  FAIR      55  30  38 MISG      30.09S                  
CANON CITY     FAIR      63  32  31 W13       30.02F                  
WALSENBURG     NOT AVBL                                               
TRINIDAD       FAIR      60  42  51 NW12      30.04F                  
$$

COZ042>045-048>051-090-091-241700-
...NORTHEAST COLORADO...
  
CITY           SKY/WX    TMP DP  RH WIND       PRES   REMARKS
GREELEY ARPT   FAIR      61  41  47 NW9       30.00S                  
AKRON          PTSUNNY   62  42  47 W7        29.97S                  
BURLINGTON     FAIR      66  39  37 CALM      29.96F                  
WRAY           FAIR      64  43  45 SE6       29.95S                  
YUMA           NOT AVBL                                               
STERLING       FAIR      59  45  58 S5        29.94F                  
HOLYOKE        FAIR      73  45  35 N8        29.93F                  
FORT MORGAN      N/A     65  41  42 W7        29.98S                  
$$

COZ086-089-092>099-241700-
...SOUTHEAST COLORADO...
  
CITY           SKY/WX    TMP DP  RH WIND       PRES   REMARKS
PUEBLO         FAIR      66  37  34 CALM      29.99F                  
LA JUNTA       FAIR      61  42  49 W8        29.98F                  
LAMAR          FAIR      58  43  57 W8        29.96F                  
SPRINGFIELD    NOT AVBL                                               
$$